AGROMETEOROLOŠKI PORTAL

vinorodna pokrajina

Temelj dobrega kmetovanja

Pregled podatkov za lokacijo Lesce, meteorološka postaja 105

Pregled senzorjev na lokaciji

ID Ime Zadnja
vrednost
Datum in čas
meritve
(lokalni čas)
Tip
senzorja
6033 Zračni tlak (hPa) 957 hPa 1.2.2023 14:00 ARSO
2346 Sončno sevanje (W/m2) 423 W/m2 1.2.2023 14:00 ARSO
2352 Padavine (mm) 0 mm 1.2.2023 14:00 ARSO
2340 Relativna zračna vlaga (2 m) (% RH) 42 % RH 1.2.2023 14:00 ARSO
2343 Temperatura tal (5 cm) (°C) 1 °C 1.2.2023 14:00 ARSO
2344 Temperatura tal (10 cm) (°C) 1,1 °C 1.2.2023 14:00 ARSO
2345 Temperatura tal (30 cm) (°C) 2 °C 1.2.2023 14:00 ARSO
2337 Temperatura (2 m) (°C) 6,9 °C 1.2.2023 14:00 ARSO
2348 Smer vetra (2 m) (°) 24 ° 1.2.2023 14:00 ARSO
2347 Hitrost vetra (2 m) (km/h) 1 km/h 1.2.2023 14:00 ARSO

Pregled podatkov zadnjih 24 ur

Zap.
št.
Datum in čas
(lokalni čas)
Lesce
Zračni
tlak
Sončno
sevanje
Padavine Relativna
zračna
vlaga
(2
m)
Temperatura
tal
(5
cm)
Temperatura
tal
(10
cm)
Temperatura
tal
(30
cm)
Temperatura
(2
m)
Smer
vetra
(2
m)
Hitrost
vetra
(2
m)
1 1.2.2023 14:00 957,3 423 0 42 1 1,1 2 6,9 24 1
2 1.2.2023 13:30 957,8 449 0 44 1 1,1 2,1 6,4 267 1
3 1.2.2023 13:00 958,3 478 0 48 1 1,2 2,1 5,1 99 1
4 1.2.2023 12:30 959 480 0 46 1 1,2 2,1 5,6 179 1
5 1.2.2023 12:00 959,3 467 0 48 1 1,2 2,1 5 324 1
6 1.2.2023 11:30 959,7 445 0 52 1,1 1,2 2,1 4,3 265 0
7 1.2.2023 11:00 959,8 432 0 58 1,1 1,2 2,1 2,1 201 1
8 1.2.2023 10:30 959,6 409 0 61 1,1 1,2 2,1 0,8 352 2
9 1.2.2023 10:00 959,6 382 0 63 1,1 1,2 2,1 0,1 234 2
10 1.2.2023 09:30 959,6 341 0 71 1,1 1,2 2,1 -1,8 325 3
11 1.2.2023 09:00 959,7 256 0 78 1,1 1,2 2,1 -3,4 320 5
12 1.2.2023 08:30 959,8 142 0 84 1,1 1,2 2,1 -5,1 339 2
13 1.2.2023 08:00 959,6 18 0 84 1,1 1,2 2,1 -6,2 327 4
14 1.2.2023 07:30 959,5 2 0 84 1,1 1,2 2,1 -5,3 304 3
15 1.2.2023 07:00 959,4 0 0 83 1,1 1,2 2,1 -5,7 353 3
16 1.2.2023 06:30 959,4 0 0 84 1,1 1,2 2,1 -6,1 326 5
17 1.2.2023 06:00 959,4 0 0 83 1,1 1,2 2,1 -5,6 328 4
18 1.2.2023 05:30 959,4 0 0 84 1,1 1,3 2,1 -6,1 329 4
19 1.2.2023 05:00 959,4 0 0 84 1,1 1,3 2,1 -6 332 5
20 1.2.2023 04:30 959,2 0 0 82 1,1 1,2 2,1 -5,8 320 4
21 1.2.2023 04:00 959,2 0 0 82 1,2 1,3 2,1 -5,3 353 3
22 1.2.2023 03:30 959,4 0 0 84 1,2 1,3 2,2 -5,8 332 4
23 1.2.2023 03:00 959,5 0 0 82 1,2 1,3 2,1 -5,6 337 3
24 1.2.2023 02:30 959,6 0 0 79 1,2 1,3 2,1 -5,3 320 3
25 1.2.2023 02:00 959,7 0 0 78 1,2 1,3 2,1 -4,3 10 3
26 1.2.2023 01:30 959,7 0 0 77 1,2 1,3 2,1 -4,6 350 2
27 1.2.2023 01:00 959,6 0 0 77 1,2 1,3 2,1 -4 9 4
28 1.2.2023 00:30 959,8 0 0 79 1,2 1,3 2,2 -4,5 294 3
29 1.2.2023 00:00 959,9 0 0 76 1,2 1,3 2,1 -4 25 3
30 31.1.2023 23:30 960 0 0 74 1,2 1,3 2,1 -3,1 312 2
31 31.1.2023 23:00 960,1 0 0 72 1,2 1,3 2,1 -2,8 4 2
32 31.1.2023 22:30 960,1 0 0 71 1,2 1,3 2,1 -2,1 327 1
33 31.1.2023 22:00 960,1 0 0 69 1,2 1,3 2,2 -2 102 3
34 31.1.2023 21:30 959,9 0 0 64 1,2 1,3 2,1 -0,4 313 7
35 31.1.2023 21:00 959,8 0 0 64 1,2 1,3 2,1 -0,5 348 6
36 31.1.2023 20:30 959,6 0 0 62 1,2 1,3 2,1 0,2 331 11
37 31.1.2023 20:00 959,6 0 0 61 1,2 1,3 2,1 0,5 323 10
38 31.1.2023 19:30 959,3 0 0 65 1,2 1,3 2,1 0,1 325 3
39 31.1.2023 19:00 959,5 0 0 63 1,2 1,3 2,1 0,7 318 7
40 31.1.2023 18:30 959,6 0 0 65 1,2 1,3 2,1 0,6 311 5
41 31.1.2023 18:00 959,5 0 0 58 1,2 1,3 2,2 2,2 32 6
42 31.1.2023 17:30 959,6 1 0 48 1,2 1,3 2,1 4,1 35 3
43 31.1.2023 17:00 959,6 13 0 37 1,2 1,3 2,2 6,5 310 3
44 31.1.2023 16:30 959,5 94 0 33 1,2 1,3 2,2 7,9 247 7
45 31.1.2023 16:00 959,5 172 0 32 1,2 1,3 2,2 8,3 260 6
46 31.1.2023 15:30 959,2 257 0 31 1,2 1,3 2,2 8,3 245 11
47 31.1.2023 15:00 959,3 283 0 26 1,2 1,3 2,2 9,1 220 6
48 31.1.2023 14:30 959,4 383 0 25 1,2 1,3 2,2 9,1 227 7